Location: Champaign/Urbana Astronomical Society Observatory
(40.0333°N, 88.2833°W)
Time: 20:41:34
(UTC-05:00)

AIST 2D - Pass Details

Date: 29 May 2019
Orbit: 456 x 473 km, 97.2° (Epoch: 17 June)

Event Time Altitude Azimuth Distance (km) Brightness Sun altitude
Rises 00:31:54 0° 356° (N) 2,499 ? -28.2°
Reaches altitude 10° 00:34:16 10° 341° (NNW) 1,615 ? -28.3°
Enters shadow 00:35:52 18° 317° (NW) 1,182 ? -28.3°
